Location: D�rnast
(49.6426°N, 11.9755°E)
Time: 03:15:58
(UTC+00:00)

SeaSat 1 - Pass Details

Date: 24 January 2021
Orbit: 744 x 747 km, 108.0° (Epoch: 24 February)

Event Time Altitude Azimuth Distance (km) Brightness Sun altitude
Exits shadow 17:00:38 - 23° (NNE) 3,124 5.3 -10.7°
Reaches altitude 10° 17:02:55 10° 14° (NNE) 2,275 4.7 -11.0°
Maximum altitude 17:07:12 30° 314° (NW) 1,316 4.1 -11.7°
Drops below altitude 10° 17:11:27 10° 254° (WSW) 2,265 6.5 -12.4°
Sets 17:13:56 0° 244° (WSW) 3,186 7.5 -12.8°
